This is the latest recevied weather packets stored in our database for station/object VK6DUG. If no packets are shown the sender has not sent any weather packets the latest 10 day(s).
| Time | Temp. | Humidity | Pressure | Rain* | Wind** | Luminosity | Snow |
|---|---|---|---|---|---|---|---|
| 1777942226 | 13.89° C | 91% | 1030.4 hPa | 0 mm | - | 120 W/m² | - |
| 1777941623 | 13.33° C | 94% | 1030.4 hPa | 0 mm | - | 105 W/m² | - |
| 1777941020 | 12.78° C | 95% | 1030.2 hPa | 0 mm | - | 90 W/m² | - |
| 1777940417 | 11.67° C | 96% | 1030.2 hPa | 0 mm | - | 84 W/m² | - |
| 1777939835 | 11.67° C | 96% | 1030.2 hPa | 0 mm | - | 77 W/m² | - |
| 1777939232 | 10.56° C | 96% | 1029.9 hPa | 0 mm | - | 69 W/m² | - |
| 1777938630 | 10° C | 96% | 1029.9 hPa | 0 mm | - | 28 W/m² | - |
| 1777938027 | 9.44° C | 96% | 1029.6 hPa | 0 mm | - | 22 W/m² | - |
| 1777937424 | 9.44° C | 96% | 1029.4 hPa | 0 mm | - | 19 W/m² | - |
| 1777936821 | 8.89° C | 95% | 1029.2 hPa | 0 mm | - | 15 W/m² | - |
| 1777936218 | 8.89° C | 95% | 1029.2 hPa | 0 mm | - | 11 W/m² | - |
| 1777935635 | 8.89° C | 95% | 1029 hPa | 0 mm | - | 6 W/m² | - |
| 1777935032 | 8.89° C | 95% | 1028.8 hPa | 0 mm | - | 2 W/m² | - |
| 1777934430 | 8.89° C | 95% | 1028.8 hPa | 0 mm | - | 0 W/m² | - |
| 1777933828 | 9.44° C | 95% | 1028.8 hPa | 0 mm | - | 0 W/m² | - |
| 1777933225 | 9.44° C | 95% | 1028.7 hPa | 0 mm | - | 0 W/m² | - |
| 1777932622 | 9.44° C | 95% | 1028.7 hPa | 0 mm | - | 0 W/m² | - |
| 1777932018 | 9.44° C | 95% | 1028.5 hPa | 0 mm | - | 0 W/m² | - |
| 1777931432 | 9.44° C | 95% | 1028.6 hPa | 0 mm | - | 0 W/m² | - |
| 1777930829 | 8.89° C | 95% | 1028.5 hPa | 0 mm | - | 0 W/m² | - |
| 1777930225 | 9.44° C | 95% | 1028.6 hPa | 0 mm | - | 0 W/m² | - |
| 1777929621 | 8.89° C | 95% | 1028.7 hPa | 0 mm | - | 0 W/m² | - |
| 1777929019 | 8.89° C | 94% | 1028.7 hPa | 0 mm | - | 0 W/m² | - |
| 1777928436 | 8.89° C | 94% | 1028.7 hPa | 0 mm | - | 0 W/m² | - |
| 1777927831 | 8.89° C | 94% | 1028.7 hPa | 0 mm | - | 0 W/m² | - |
* Rain latest hour (hover to see other rain measurements)
** Current wind speed in m/s (hover to see current wind gust speed)